Lid_Strength_Index
12 15 18 18 16 14 15 17 19 16 14 15 12 14 13 12 12 13 13 14 14 14 13 13 13 12 12 12 13 12 12 11 10 10 10 9 7 6 3 0 0 -0 -0 1
16 18 15 14 15 14 16 18 19 16 14 15 13 14 13 13 13 13 13 13 13 13 13 13 13 13 14 13 13 12 12 11 10 10 10 9 8 5 4 1 0 0 0 0
18 16 14 15 17 17 17 19 19 18 15 14 13 15 15 13 13 13 13 13 13 13 13 12 12 12 13 14 14 13 12 12 11 10 9 10 10 9 7 7 6 0 0 0
16 15 15 16 17 17 18 16 17 17 19 22 15 19 15 15 15 15 14 15 14 13 12 12 12 12 12 12 12 13 13 12 12 11 10 10 11 12 10 8 7 5 0 1
17 17 18 18 17 15 17 15 16 16 18 19 17 22 19 15 17 16 15 15 15 14 13 13 13 12 12 11 12 12 11 12 12 12 12 11 11 10 10 9 8 7 3 2
16 14 16 17 15 14 14 15 15 14 17 25 20 22 22 19 18 16 16 15 15 14 14 13 12 12 12 12 12 11 11 11 11 11 11 12 12 11 11 10 10 8 7 3
17 18 16 15 18 15 16 19 30 28 28 26 19 23 21 17 16 16 16 16 15 15 15 14 13 13 13 12 12 12 12 12 11 11 11 10 11 11 11 11 10 10 8 6
22 22 18 16 18 19 18 20 28 34 28 25 19 26 20 15 14 15 16 15 15 15 14 14 14 13 13 13 12 12 12 12 12 11 11 10 10 9 10 11 11 10 9 8
24 21 16 16 16 17 19 22 17 28 32 29 22 19 16 15 15 17 16 16 16 15 15 15 14 14 14 14 13 13 13 12 12 12 11 11 10 10 10 9 10 10 10 9
19 25 17 16 16 15 17 17 25 28 34 36 25 23 23 17 18 17 17 17 16 15 14 14 14 14 13 13 13 12 13 13 12 11 11 11 11 10 10 10 10 10 10 10
18 23 20 17 19 20 20 20 20 24 25 32 32 26 21 18 17 18 17 16 16 15 14 14 14 13 12 12 12 12 11 11 11 11 11 11 11 11 10 11 10 10 10 10
16 24 28 21 18 18 17 20 20 29 28 25 25 26 14 16 16 16 16 15 14 14 13 13 12 11 11 11 11 10 10 10 10 9 10 10 10 10 10 11 10 10 9 9
18 25 31 25 21 18 20 18 18 23 26 29 32 26 15 15 15 14 14 13 13 13 13 12 11 11 10 10 10 10 9 9 9 9 9 9 9 10 10 10 10 9 9 9
15 22 25 27 24 21 22 20 20 25 32 25 24 22 18 16 16 14 14 13 13 13 12 11 11 10 9 9 9 9 9 8 8 8 9 9 9 9 9 10 10 9 9 9
18 27 23 22 19 20 20 19 19 21 21 27 21 21 18 16 15 14 13 12 13 12 11 11 10 9 9 9 9 8 8 8 8 8 9 9 9 8 9 10 10 10 9 8
16 27 25 27 21 20 21 19 19 19 18 19 19 20 15 15 14 14 13 13 12 12 11 10 9 9 9 9 8 8 8 8 8 8 8 8 9 9 9 10 10 9 9 8
21 25 29 32 23 28 28 24 20 19 19 20 23 17 15 16 14 13 13 12 12 11 10 9 9 8 8 8 8 8 8 8 9 8 8 9 9 9 10 10 10 10 9 9
22 23 24 28 31 35 21 17 17 18 17 16 16 16 15 15 13 12 11 11 11 11 10 9 8 8 8 8 8 8 8 9 9 9 9 9 10 11 10 11 11 11 9 9
16 19 25 30 36 25 20 18 18 19 20 14 17 15 15 14 14 14 10 10 10 13 10 8 7 8 8 8 8 8 9 10 11 11 11 11 11 10 10 12 12 11 10 9
19 18 19 33 32 35 22 17 15 16 23 16 15 15 15 14 16 13 11 9 9 9 9 9 8 8 8 9 10 10 10 11 12 12 12 12 10 11 12 12 11 10 9 8
28 22 21 21 23 26 17 14 14 23 18 14 14 13 13 14 12 10 9 9 8 9 9 9 9 10 9 10 9 12 13 14 13 13 13 12 12 13 12 12 10 10 9 9
25 26 27 29 31 28 15 15 17 13 12 12 12 11 12 11 10 9 9 8 8 9 10 9 9 10 10 10 9 13 15 15 14 14 14 15 14 13 12 12 10 10 11 9
23 19 22 21 21 15 13 12 11 11 11 11 11 10 9 9 10 9 8 8 8 8 8 9 10 10 12 13 11 12 15 14 15 16 17 16 14 13 11 12 12 11 10 10
17 15 18 16 15 13 11 10 11 10 10 8 8 8 8 8 8 7 7 7 7 7 7 10 10 11 13 14 14 17 16 15 17 18 18 16 14 14 13 12 11 11 10 10
15 15 15 15 13 10 11 9 9 8 7 7 7 7 7 7 7 7 7 7 8 8 9 10 11 12 13 14 15 18 16 17 18 18 18 16 15 15 14 13 11 10 10 10
12 13 14 15 10 10 9 8 7 8 8 7 7 7 7 7 7 8 9 9 10 12 12 13 13 15 16 17 17 18 20 19 21 20 18 18 17 16 15 13 13 10 9 8